Location: ???????
(55.3754°N, 39.3545°E)
Time: 16:50:26
(UTC+00:00)

Meteor 2-21 - Pass Details

Date: 14 April 2026
Orbit: 934 x 965 km, 82.5° (Epoch: 16 May)

Event Time Altitude Azimuth Distance (km) Brightness Sun altitude
Rises 17:53:46 0° 347° (NNW) 3,625 8.3 -11.9°
Reaches altitude 10° 17:56:15 10° 349° (NNW) 2,680 7.6 -12.1°
Maximum altitude 18:02:25 84° 79° (ENE) 965 4.4 -12.8°
Enters shadow 18:08:24 11° 167° (SSE) 2,617 6.3 -13.5°
